Location: *
(46.1866°S, 178.5290°W)
Time: 13:53:27
(UTC+00:00)

Cosmos 1461 - Pass Details

Date: 03 October 2021
Orbit: 520 x 642 km, 65.0° (Epoch: 18 October)

Event Time Altitude Azimuth Distance (km) Brightness Sun altitude
Rises 09:27:52 0° 277° (W) 2,771 6.8 -31.5°
Reaches altitude 10° 09:30:41 10° 256° (WSW) 1,906 6.1 -31.8°
Maximum altitude 09:33:37 18° 213° (SSW) 1,506 5.7 -32.1°
Drops below altitude 10° 09:36:38 10° 170° (S) 1,971 6.1 -32.4°
Sets 09:39:38 0° 150° (SSE) 2,907 6.8 -32.7°
